#timestamp,LO_Frequency,Hit,StdDev 
1509800415.6,286047001.8,N
1509800435.4,286047001.5,N
1509800455.2,286047001.5,N
1509800475.1,286046999.8,N
1509800476.0,286046999.8,N
1509800495.8,286046998.6,N
1509800515.7,286047002.8,N
1509800535.5,286046998.2,N
1509800555.3,286047000.8,N
1509800575.2,286046995.2,N
1509800595.9,286046999.5,N
1509800615.7,286047004.2,N
1509800635.6,286046998.3,N
1509800655.4,286046993.4,N
1509800675.2,286047000.8,N
1509800695.1,286047002.0,N
1509800696.0,286047002.0,N
1509800715.8,286046997.3,N
1509800735.6,286046998.6,N
1509800755.5,286046999.4,N
1509800775.3,286046998.4,N
1509800795.1,286046998.2,N
1509800815.9,286046999.9,N
1509800835.7,286047003.7,N
1509800855.5,286047001.9,N
1509800875.4,286046999.7,N
1509800895.2,286047004.5,N
1509800915.0,286047006.0,N
1509800915.9,286047006.0,N
1509800935.8,286047008.1,N
1509800955.6,286047009.0,N
1509800975.4,286047007.2,N
1509800995.3,286047007.9,N
1509801015.1,286047005.3,N
1509801016.0,286047005.3,N
1509801035.8,286047001.8,N
1509801055.7,286047004.0,N
1509801075.5,286047002.0,N
1509801095.3,286047001.7,N
1509801115.2,286047000.3,N
1509801135.0,286046996.9,N
1509801135.9,286046996.9,N
1509801155.7,286047000.1,N
1509801175.6,286047000.2,N
1509801195.4,286047002.5,N
1509801215.2,286047001.9,N
1509801235.1,286046998.9,N
1509801236.0,286046998.9,N
1509801255.8,286046997.5,N
1509801275.7,286046997.2,N
1509801295.5,286046992.2,N
1509801315.3,286046997.8,N
1509801335.2,286046997.5,N
1509801355.9,286046996.1,N
1509801375.7,286046993.9,N
1509801395.6,286046999.5,N
1509801415.4,286046998.5,N
1509801435.2,286047002.7,N
1509801455.1,286046998.6,N
1509801456.0,286046998.6,N
1509801475.8,286046997.9,N
1509801495.6,286046997.3,N
1509801515.5,286046998.7,N
1509801535.3,286047000.6,N
1509801555.1,286047000.4,N
1509801575.9,286047003.4,N
1509801595.7,286047006.4,N
1509801615.5,286047009.1,Y
1509801635.4,286047005.9,P
1509801655.2,286047000.4,N
1509801675.0,286046998.1,N
1509801675.9,286046998.1,N
1509801695.8,286047001.0,N
1509801715.6,286046998.2,N
1509801735.4,286047000.1,N
1509801755.3,286046998.2,N
1509801775.1,286046997.0,N
1509801795.9,286046995.2,N
1509801815.7,286046990.9,Y
1509801835.5,286046991.6,P
1509801855.4,286046996.2,N
1509801875.2,286047001.9,N
1509801895.0,286047001.9,N
1509801895.9,286047001.9,N
1509801915.8,286046998.6,N
1509801935.6,286046997.1,N
1509801955.4,286046997.8,N
1509801975.3,286047003.1,N
1509801995.1,286047005.5,N
1509801996.0,286047005.5,N
1509802015.8,286047001.3,N
1509802035.7,286047006.9,N
1509802055.5,286047002.0,N
1509802075.3,286047004.1,N
1509802095.2,286047002.0,N
1509802115.9,286046998.2,N
1509802135.7,286046998.0,N
1509802155.6,286046999.5,N
1509802175.4,286047000.1,N
1509802195.2,286046999.0,N
1509802215.1,286047000.7,N
1509802216.0,286047000.7,N
1509802235.8,286046997.6,N
1509802255.6,286046993.3,N
1509802275.5,286046997.5,N
1509802295.3,286046999.4,N
1509802315.1,286047001.1,N
1509802335.9,286047002.0,N
1509802355.7,286047007.3,N
1509802375.5,286047006.3,N
1509802395.4,286047005.1,N
1509802415.2,286047006.9,N
1509802435.1,286047010.7,Y
1509802436.0,286047010.7,P
1509802455.8,286047007.1,N
1509802475.6,286047003.4,N
1509802495.5,286047005.1,N
1509802515.3,286047001.0,N
1509802535.1,286047000.8,N
1509802555.9,286047003.5,N
1509802575.7,286047008.2,N
1509802595.5,286047008.2,N
1509802615.4,286047011.9,Y
1509802635.2,286047006.1,P
1509802655.0,286047010.1,P
1509802655.9,286047010.1,P
1509802675.8,286047010.5,Y
1509802695.6,286047005.2,P
1509802715.4,286047000.4,N
1509802735.3,286047000.3,N
1509802755.1,286046996.8,N
1509802775.8,286046996.0,N
1509802795.7,286046989.6,N
1509802815.5,286046983.7,N
1509802835.3,286046985.2,N
1509802855.2,286046982.6,N
1509802875.0,286046984.3,N
1509802875.9,286046984.3,N
1509802895.8,286046982.3,N
1509802915.6,286046983.7,N
1509802935.4,286046985.2,N
1509802955.3,286046982.4,N
1509802975.1,286046981.2,N
1509802976.0,286046981.2,N
1509802995.8,286046984.8,N
1509803015.7,286046985.7,N
1509803035.5,286046985.6,N
1509803055.3,286046982.1,N
1509803075.2,286046982.1,N
1509803095.9,286046983.1,N
1509803115.7,286046976.5,N
1509803135.6,286046976.2,N
1509803155.4,286046973.6,Y
1509803175.2,286046985.1,P
1509803195.1,286046992.4,P
1509803196.0,286046992.4,N
1509803215.8,286046995.2,N
1509803235.6,286046999.4,N
1509803255.5,286046999.3,N
1509803275.3,286046995.3,N
1509803295.1,286046997.8,N
1509803315.9,286046995.7,N
1509803335.7,286046999.2,N
1509803355.5,286046997.5,N
1509803375.4,286046999.0,N
1509803395.2,286047001.1,N
1509803415.0,286047003.6,N
1509803415.9,286047003.6,N
1509803435.8,286047003.1,N
1509803455.6,286047002.9,N
1509803475.4,286047005.5,N
1509803495.3,286047001.5,N
1509803515.1,286047002.6,N
1509803535.8,286047004.2,N
1509803555.7,286047004.0,N
1509803575.5,286047007.5,N
1509803595.3,286047005.7,N
1509803615.2,286047003.6,N
1509803635.0,286047007.3,N
1509803635.9,286047007.3,N
1509803655.7,286047005.2,N
1509803675.6,286047006.1,N
1509803695.4,286047005.7,N
1509803715.2,286047003.0,N
1509803735.1,286047007.1,N
1509803736.0,286047007.1,N
1509803755.8,286047006.4,N
1509803775.7,286047005.0,N
1509803795.5,286047001.9,N
1509803815.3,286047002.4,N
1509803835.2,286046999.7,N
1509803855.9,286046999.7,N
1509803875.7,286046998.3,N
1509803895.5,286046999.6,N
1509803915.4,286046997.4,N
1509803935.2,286046993.1,N
1509803955.1,286046983.8,Y
1509803956.0,286046983.8,P
1509803975.8,286046983.5,N
1509803995.6,286046980.6,N
